Campo, CA

3:13 PM PDT on September 25, 2016 (GMT -0700)
Campo

Weather History for KCZZ - December, 2011

Change the Weather History Date:

Thursday, December 22, 2011

  Actual Average Record
Temperature  
Mean Temperature 38 °F 47 °F  
Max Temperature 50 °F 62 °F 76 °F (1980)
Min Temperature 26 °F 33 °F 20 °F (1998)
Degree Days  
Heating Degree Days 27 18  
Month to date heating degree days 500 382  
Since 1 July heating degree days 1132 952  
Cooling Degree Days 0 0  
Month to date cooling degree days 0 0  
Year to date cooling degree days 733 841  
Moisture  
Dew Point 10 °F    
Average Humidity 53    
Maximum Humidity 92    
Minimum Humidity 13    
Precipitation  
Precipitation 0.00 in 0.08 in 2.42 in (2010)
Month to date precipitation 1.49 1.50  
Year to date precipitation 12.99 14.96  
Since 1 July precipitation 5.24  
Snow  
Snow 0.00 in - - ()
Month to date snowfall 0.0  
Year to date snowfall 0.0  
Snow Depth 0.00 in    
Sea Level Pressure  
Sea Level Pressure 30.15 in    
Wind  
Wind Speed 16 mph (NE)    
Max Wind Speed 37 mph    
Max Gust Speed 44 mph    
T = Trace of Precipitation, MM = Missing Value Source: NWS Daily Summary

Daily Weather History Graph

Daily Weather History Graph

Search for Another Location

Airport or City:

Trip Planner

Search our weather history database for the weather conditions in past years. The results will help you decide how hot, cold, wet, or windy it might be!

Date:

Astronomy

Dec. 22, 2011 Rise Set
Actual Time 6:44 AM PST 4:44 PM PST
Civil Twilight 6:17 AM PST 5:11 PM PST
Nautical Twilight 5:46 AM PST 5:42 PM PST
Astronomical Twilight 5:16 AM PST 6:12 PM PST
Moon 4:33 AM PST (12/22) 2:58 PM PST (12/22)
Length of Visible Light 10h 54m
Length of Day
10h 00m
Waning Crescent, 5% of the Moon is Illuminated
Dec 22
Waning Crescent
Dec 24
New
Dec 31
First Quarter
Jan 8
Full
Jan 16
Last Quarter

Hourly Weather History & Observations

Time (PST) Temp. Windchill Dew Point Humidity Pressure Visibility Wind Dir Wind Speed Gust Speed Precip Events Conditions
12:52 AM 27.0 °F 20.5 °F 25.0 °F 92% 30.05 in - NE 5.8 mph - N/A   Unknown
1:52 AM 28.9 °F 25.2 °F 27.0 °F 92% 30.05 in - NE 3.5 mph - N/A   Unknown
2:52 AM 28.9 °F 22.8 °F 26.1 °F 89% 30.05 in - NE 5.8 mph - N/A   Unknown
3:52 AM 27.0 °F 19.5 °F 24.1 °F 89% 30.05 in - NE 6.9 mph - N/A   Unknown
4:52 AM 28.0 °F 24.2 °F 25.0 °F 88% 30.07 in - NE 3.5 mph - N/A   Unknown
5:52 AM 39.0 °F 32.8 °F 25.0 °F 57% 30.07 in - ENE 9.2 mph - N/A   Unknown
6:52 AM 42.1 °F 34.5 °F 21.9 °F 45% 30.09 in - ENE 15.0 mph - N/A   Unknown
7:52 AM 44.1 °F 35.4 °F 19.0 °F 37% 30.11 in - ENE 21.9 mph 32.2 mph N/A   Unknown
8:52 AM 46.9 °F - 8.1 °F 21% 30.13 in - ENE 27.6 mph 35.7 mph N/A   Unknown
9:52 AM 48.0 °F - 3.9 °F 16% 30.15 in - NE 28.8 mph 39.1 mph N/A   Unknown
10:52 AM 48.0 °F - 3.9 °F 16% 30.14 in - ENE 29.9 mph 35.7 mph N/A   Unknown
11:52 AM 48.0 °F - 5.0 °F 17% 30.14 in - ENE 26.5 mph 32.2 mph N/A   Unknown
12:52 PM 48.0 °F - 5.0 °F 17% 30.14 in - NE 23.0 mph 36.8 mph N/A   Unknown
1:52 PM 50.0 °F - 1.9 °F 14% 30.13 in - ENE 24.2 mph 28.8 mph N/A   Unknown
2:52 PM 48.0 °F - -0.9 °F 13% 30.16 in - NE 16.1 mph 28.8 mph N/A   Unknown
3:52 PM 46.9 °F - -2.0 °F 13% 30.19 in - NE 15.0 mph 25.3 mph N/A   Unknown
4:52 PM 43.0 °F 38.2 °F 1.0 °F 17% 30.20 in - ENE 8.1 mph - N/A   Unknown
5:52 PM 37.0 °F 28.9 °F 3.0 °F 24% 30.19 in - NE 12.7 mph - N/A   Unknown
6:52 PM 43.0 °F 35.1 °F 1.0 °F 17% 30.18 in - NNE 17.3 mph 26.5 mph N/A   Unknown
7:52 PM 43.0 °F 35.4 °F 1.9 °F 18% 30.20 in - NE 16.1 mph 21.9 mph N/A   Unknown
8:00 PM - - - N/A% - - North - - N/A   Unknown
8:52 PM 41.0 °F 35.2 °F 3.0 °F 21% 30.22 in - NE 9.2 mph - N/A   Unknown
9:52 PM 39.0 °F 32.8 °F 3.0 °F 22% 30.24 in - NNE 9.2 mph - N/A   Unknown
10:52 PM 33.1 °F 30.0 °F 7.0 °F 34% 30.27 in - SW 3.5 mph - N/A   Unknown
11:52 PM 28.0 °F - 9.0 °F 45% 30.30 in - Calm Calm - N/A   Unknown